Regional Weather Roundup
Issued by NWS

Home | Current Version | Previous Version | Text Only | Print | Product List | Glossary On
Versions: 1 2 3 4 5 6 7 8 9 10 11 12 13 14 15 16 17 18 19 20 21 22 23 24 25 26 27 28 29 30 31 32 33 34 35 36 37 38 39 40 41 42 43 44 45 46 47 48 49 50
000
ASUS43 KIND 181559
RWRIN

WEATHER ROUNDUP FOR INDIANA
NATIONAL WEATHER SERVICE INDIANAPOLIS IN
1100 AM EST MON DEC 18 2017

NOTE: "FAIR" INDICATES FEW OR NO CLOUDS BELOW 12,000 FEET WITH NO
SIGNIFICANT WEATHER AND/OR OBSTRUCTIONS TO VISIBILITY.

* - STATION DOES NOT REPORT WEATHER SUCH AS PRECIPITATION OR FOG.

+ - STATION NOT QUALITY CONTROLLED BY THE NATIONAL WEATHER SERVICE.
    USE DATA WITH CAUTION...ESPECIALLY DEWPOINT AND RELATIVE
    HUMIDITY OBSERVATIONS.

INZ001>003-010>013-019-020-181700-
NORTHWEST INDIANA

CITY           SKY/WX    TMP DP  RH WIND       PRES   REMARKS
GARY /AIRPORT/ CLOUDY    45  43  93 SW7       29.95S FOG
KNOX *+        CLOUDY    43  41  93 SW13G21   29.96F
LA PORTE +     CLOUDY    41  41  97 SW8       29.96R FOG
MONTICELLO +   CLOUDY    44  43  96 SW15      30.00S

$$

LMZ046-743>745-181700-
SOUTHERN LAKE MICHIGAN

STATION/POSITION TIME  TEMP    WIND        PRES    WAVE
                       AIR SEA DIR/SP/G            HT
                 (UTC) (F)     (DEG/KT/KT) (MB)    (FT)
BURNS HARBOR     1540   44     210/ 13/ 20 1014.6S
MICHIGAN CITY    1530   43     210/ 18/ 22   N/A

$$

INZ004-005-014>016-021>024-181700-
NORTH CENTRAL INDIANA

CITY           SKY/WX    TMP DP  RH WIND       PRES   REMARKS
ELKHART          N/A     41  39  93 SW7       29.95S FOG
GOSHEN         CLOUDY    42  41  96 SW13      29.95F FOG
PERU/GRISSOM   CLOUDY    44  44 100 SW15      30.00S
ROCHESTER +    CLOUDY    45  45 100 SW14      29.99R FOG
SOUTH BEND     CLOUDY    40  40 100 SW14      29.96R FOG     WCI  32
WARSAW +       CLOUDY    41  41 100 SW6       29.97S FOG

$$

INZ006>009-017-018-025>027-181700-
NORTHEAST INDIANA

CITY           SKY/WX    TMP DP  RH WIND       PRES   REMARKS
AUBURN +       CLOUDY    43  39  87 SW7       29.98R FOG
FORT WAYNE     CLOUDY    43  42  97 SW15      29.99S FOG
KENDALLVILLE + CLOUDY    41  41 100 SW10      29.96S FOG

$$

INZ028-029-035-036-043>045-051>053-181700-
WEST CENTRAL INDIANA

CITY           SKY/WX    TMP DP  RH WIND       PRES   REMARKS
CRAWFORDSVL +  CLOUDY    42  42 100 SW12      30.05S
LAFAYETTE      CLOUDY    44  43  96 SW12      30.02S
TERRE HAUTE    CLOUDY    46  42  86 SW12      30.07F

$$

INZ030>032-037>040-046>048-054>057-064-065-181700-
CENTRAL INDIANA

CITY           SKY/WX    TMP DP  RH WIND       PRES   REMARKS
ANDERSON       CLOUDY    43  43 100 SW12      30.04
COLUMBUS       CLOUDY    43  41  93 S5        30.11R FOG
FRANKFORT +    CLOUDY    46  44  91 SW12      30.04S FOG
GREENWOOD *+   CLOUDY    48  44  88 SW9       30.07F
INDIANAPOLIS   CLOUDY    45  42  89 SW13      30.06F
-EAGLE CREEK   CLOUDY    45  41  86 SW7       30.05S
KOKOMO +       CLOUDY    44  42  93 SW14      30.02S FOG
MT COMFORT *+  CLOUDY    43  43 100 SW12      30.06S
SHELBYVILLE    CLOUDY    44  41  89 SW13      30.07S
ZIONSVILLE +   CLOUDY    42  41  96 SW12      30.05S FOG

$$

INZ033-034-041-042-049-050-058-059-181700-
EAST CENTRAL INDIANA

CITY           SKY/WX    TMP DP  RH WIND       PRES   REMARKS
MUNCIE         CLOUDY    44  41  89 SW7       30.03S FOG
RICHMOND +     CLOUDY    41  41 100 SW13G18   30.07S FOG

$$

INZ060-061-067>069-081>083-085>088-181700-
SOUTHWEST INDIANA

CITY           SKY/WX    TMP DP  RH WIND       PRES   REMARKS
EVANSVILLE     LGT RAIN  45  45 100 SW9       30.15R
HUNTINGBURG +  LGT RAIN  44  44 100 SW9       30.14S FOG

$$

INZ062-063-066-070>080-084-089>092-181700-
SOUTH CENTRAL AND SOUTHEAST INDIANA

CITY           SKY/WX    TMP DP  RH WIND       PRES   REMARKS
BLOOMINGTON    CLOUDY    45  42  89 SW8       30.09S FOG
MADISON *+     CLOUDY    45  43  93 SW7       30.13S
SEYMOUR +      CLOUDY    46  45  93 S6        30.11S FOG

$$





USA.gov is the U.S. government's official web portal to all federal, state and local government web resources and services.